星链-67536(STARLINK-67536)

导读

STARLINK-67536是美国于2026年1月22日发射的卫星,隶属于SpaceX星链星座网络。星链系统旨在为全球提供高速低延迟宽带互联网服务,该卫星的入轨将进一步扩充星座规模,提升全球网络覆盖密度与服务能力,延续星链项目持续推进部署的节奏。

Basic Information
目录编号:
67536
目录名称:
STARLINK-36572
国际标识:
2026-014E
轨道中心:
EARTH
卫星名称:
星链-67536
卫星全名:
星链-67536(STARLINK-67536)
卫星状态:
在轨 (已飞行225 天)
发射日期:
2026-01-22 UTC
国别 :
美国 (US)
星等 :
--
Orbit Information
数据来源 国际轨道数据
星历时间: 2026-09-04T01:07:58+0800
13小时前
查看轨道信息
半长轴: 6843.609km
偏心率: 0.0001035
轨道倾角: 97.286°
近地点辐角 98.097°
升交点赤经 132.285°
平近点角 262.039°
近地点: 464.763km
远地点: 466.181km
周期: 93.905分钟
每日圈数: 15.334691
Detailed Information
固有亮度:
5
最大亮度:
2.5
卫星平台:
Starlink V1.0
覆盖范围:
全球
运营商:
太空探索技术公司
运营商所在国:
美国
制造商(研发单位):
太空探索技术公司
制造商所在国:
美国
使用方式:
暂无
Satellite Introduction
Starlink 计划是 SpaceX 推出的全球卫星互联网项目,通过发射低轨道卫星,为全球尤其是偏远地区提供高速、低延迟的互联网服务。自 2019 年起,Starlink 已部署数千颗卫星,旨在缩小全球数字鸿沟,推动互联网普及。该项目还为军事、航空等行业提供通信支持,带来广泛经济效益。
2D Orbit Map
3D Orbit Map
Orbit Altitude Analysis Chart
Orbit Inclination Analysis Chart
Orbit Comprehensive Analysis Chart
View Comprehensive Chart
Conjunction Data List
Event ID Objects TCA Miss Dist (km) Collision Risk Probability Collision Risk Index (CRI) Action
CDM_260903-062005-083406-753621
2026-09-03T
06:20:09+0000
2.315 km
极远距离
1.354161E-6 低风险 0.38
CDM_260905-060904-976306-753621
2026-09-05T
06:09:58+0000
2.826 km
极远距离
1.22609E-6 低风险 0.37
CDM_260903-163205-317406-753621
2026-09-03T
16:32:06+0000
2.765 km
极远距离
1.055621E-6 低风险 0.35
CDM_260904-001104-944706-753621
2026-09-04T
00:11:54+0000
2.831 km
极远距离
8.451287E-7 极低风险 0.34